Content
SEND FEEDBACK

Daily
Averages
Monthly
Summary
Brazil

FLORIANOPOLIS, SANTA CATARINA


Home > South America > Brazil > Santa Catarina
Elevation: 16 feet     Latitude: 27 40S     Longitude: 048 33W

WEATHER
 
SELECT A DAY
Number of Records: 182,528;   Date Range: 6/30/96 - 8/31/14
 
SHARE

PRINT THIS DATA

[ ← Previous Day ]
WEATHER ALMANAC - FEBRUARY 8, 2014
[ Next Day → ]
[ °C ]   °F
Weather ElementAverageHighLow
Temperature83.5 °F93.2 °F (1:00 pm)78.8 °F (8:00 pm)
Dewpoint74.5 °F78.8 °F (3:00 pm)69.8 °F (9:00 pm)
Humidity74.1 %89 % (1:00 am)50 % (4:00 pm)
Barometer29.88 in29.94 in (10:00 pm)29.83 in (4:00 am)
Wind Speed10.9 mph17.3 mph (4:00 pm)
Wind Gust32.2 mph (4:00 pm)
Weather ElementAverage
Visibility7.6 mi
Wind DirectionWNW (284.1 °)

Weather ElementTotal
Precipitation---
Cooling Degree Days21 (Base 65)
Growing Degree Days36 (Base 50)
Averaged from 29 records on February 8, 2014
WEATHER CONDITIONS BREAKOUT
WIND DIRECTION BREAKOUT
WEATHER BY HOUR - FEBRUARY 8, 2014
[ °C ]   °F
Local TimeTemperatureDewpointHumidityBarometerVisibilityWind DirectionWind SpeedGust SpeedPrecipitationEventsConditions
1:00 AM80.6 °F77.0 °F89 %29.92 inNorth (350°)10.4 mphClear
2:00 AM80.6 °F77.0 °F89 %29.89 inNNW (340°)11.5 mphClear
3:00 AM80.6 °F77.0 °F89 %29.89 inNorth (350°)11.5 mphClear
4:00 AM81.0 °F76.0 °F80 %29.85 in12.0 miNorth (350°)12.7 mph
4:00 AM80.6 °F75.2 °F84 %29.83 inNorth (350°)12.7 mphClear
5:00 AM80.6 °F75.2 °F84 %29.83 inNorth (350°)12.7 mphClear
6:00 AM80.6 °F77.0 °F89 %29.86 inNNW (330°)8.1 mphClear
7:00 AM80.6 °F77.0 °F89 %29.89 inNNW (340°)8.1 mphClear
8:00 AM82.4 °F75.2 °F79 %29.89 inNNW (340°)8.1 mphClear
9:00 AM84.2 °F77.0 °F79 %29.89 inNNW (340°)11.5 mphClear
10:00 AM86.0 °F76.0 °F65 %29.89 in12.0 miNNW (340°)13.8 mph
10:00 AM86.0 °F75.2 °F70 %29.89 inNNW (340°)13.8 mphClear
11:00 AM87.8 °F75.2 °F66 %29.86 inNorth (350°)12.7 mphClear
12:00 PM89.6 °F77.0 °F66 %29.86 inNorth (350°)11.5 mphClear
1:00 PM93.2 °F77.0 °F59 %29.83 in6.2 miNorth (350°)8.1 mphPartly Cloudy
2:00 PM93.2 °F77.0 °F59 %29.83 in6.2 miNNW (340°)8.1 mph19.6 mphPartly Cloudy
3:00 PM93.2 °F78.8 °F63 %29.86 in6.2 miNorth (350°)5.8 mphPartly Cloudy
4:00 PM88.0 °F72.0 °F50 %29.89 in12.0 miSSE (150°)17.3 mphThunderstormThunderstorm
4:00 PM87.8 °F71.6 °F58 %29.89 in6.2 miSSE (150°)17.3 mph32.2 mphThunderstormThunderstorm
5:00 PM82.4 °F71.6 °F70 %29.89 in6.2 miSE (130°)11.5 mphThunderstormPartly Cloudy
6:00 PM82.4 °F73.4 °F74 %29.89 in6.2 miSouth (180°)12.7 mphMostly Cloudy
6:40 PM80.6 °F73.4 °F79 %29.89 in6.2 miSouth (170°)13.8 mphMostly Cloudy
7:00 PM80.6 °F73.4 °F79 %29.89 in6.2 miSouth (180°)12.7 mphMostly Cloudy
7:20 PM80.6 °F71.6 °F74 %29.89 in6.2 miSouth (180°)15.0 mphMostly Cloudy
8:00 PM78.8 °F71.6 °F78 %29.92 in6.2 miSouth (190°)10.4 mphScattered Clouds
9:00 PM80.6 °F69.8 °F70 %29.92 in6.2 miSouth (170°)4.6 mphScattered Clouds
10:00 PM80.0 °F72.0 °F69 %29.94 in12.0 miWest (270°)8.1 mphPartly Cloudy
10:00 PM80.6 °F71.6 °F74 %29.92 in6.2 miWest (270°)8.1 mphScattered Clouds
11:00 PM78.8 °F69.8 °F74 %29.92 in6.2 miNNW (340°)4.6 mphPartly Cloudy
Hourly data recorded from SBFL, located miles away from Florianopolis, Santa Catarina







STORIES FROM OUR PARTNERS